Location: Degersen
(52.2871°N, 9.5716°E)
Time: 14:37:32
(UTC+00:00)

Lacrosse 5 rocket - Visible Passes

Search period start: 11 April 2026 00:00
Search period end: 21 April 2026 00:00
Orbit: 391 x 478 km, 57.0° (Epoch: 11 April)

Date Brightness Start Highest point End Pass type
(mag) Time Alt. Az. Time Alt. Az. Time Alt. Az.
11 Apr 0.9 19:57:11 10° SW 20:00:14 43° SE 20:00:41 40° ESE visible
11 Apr 3.6 21:33:46 10° W 21:34:04 12° W 21:34:04 12° W visible
12 Apr 1.5 19:15:13 10° SSW 19:18:03 29° SE 19:20:53 10° ENE visible
12 Apr 1.1 20:51:23 10° WSW 20:54:32 58° NNW 20:54:38 58° NNW visible
13 Apr 0.7 20:09:00 10° WSW 20:12:12 78° NNW 20:14:38 16° ENE visible
13 Apr 2.8 21:46:11 10° WNW 21:47:58 25° NW 21:47:58 25° NW visible
14 Apr 0.5 19:26:41 10° SW 19:29:52 77° SSE 19:33:04 10° ENE visible
14 Apr 2.1 21:03:42 10° W 21:06:42 37° N 21:07:35 30° NNE visible
14 Apr 3.9 22:40:46 10° WNW 22:40:53 11° WNW 22:40:53 11° WNW visible
15 Apr 1.8 20:21:10 10° W 20:24:15 42° NNW 20:26:56 13° ENE visible
15 Apr 2.8 21:58:21 10° WNW 22:00:13 26° NW 22:00:13 26° NW visible
16 Apr 1.5 19:38:39 10° W 19:41:47 52° NNW 19:44:55 10° ENE visible
16 Apr 2.2 21:15:53 10° WNW 21:18:50 33° N 21:19:24 31° NNE visible
16 Apr 3.9 22:52:39 10° WNW 22:52:40 10° WNW 22:52:40 10° WNW visible
17 Apr 2.2 20:33:20 10° WNW 20:36:18 33° N 20:38:27 16° ENE visible
17 Apr 2.9 22:10:14 10° WNW 22:11:43 24° NW 22:11:43 24° NW visible
18 Apr 2.1 19:50:45 10° WNW 19:53:44 35° N 19:56:43 10° ENE visible
18 Apr 1.8 21:27:46 10° WNW 21:30:41 41° N 21:30:41 41° N visible
19 Apr 2.0 19:08:06 10° W 19:11:10 40° NNW 19:14:12 10° ENE visible
19 Apr 2.0 20:45:15 10° WNW 20:48:15 36° N 20:49:35 24° ENE visible
19 Apr 3.2 22:21:54 10° WNW 22:22:50 18° WNW 22:22:50 18° WNW visible
20 Apr 2.1 20:02:40 10° WNW 20:05:38 34° N 20:08:27 11° ENE visible
20 Apr 1.7 21:39:23 10° WNW 21:41:42 43° NW 21:41:42 43° NW visible
